Location: Baia Mare
(47.6567°N, 23.5850°E)
Time: 00:15:27
(UTC+03:00)

ISS - Pass Details

Date: 03 November 2018
Orbit: 403 x 408 km, 51.6° (Epoch: 17 October)

Event Time Altitude Azimuth Distance (km) Brightness Sun altitude
Exits shadow 05:03:19 46° 45° (NE) 551 -2.9 -22.1°
Drops below altitude 10° 05:05:49 10° 64° (ENE) 1,465 -0.1 -21.7°
Sets 05:07:55 0° 67° (ENE) 2,328 1.2 -21.3°
